Starlink 32877

operational
NORAD ID: 62960 Int'l Des: 2025-029 Owner: SPXS Country: US Constellation: starlink
LEOCIRCULAR

About Starlink 32877

Description loading...

Live Position

Loading 3D Globe...

Upcoming Passes

Altitude History

Altitude vs Time

uPlot chart will show altitude changes over time

Two-Line Element Set

1 62960U 25029N 25305.86762653 .00049185 00000-0 16598-2 0 9997
2 62960 53.1583 106.4491 0000307 13.7467 346.3542 15.30239486 41725
Epoch: Nov 1, 2025 • Age: 23 hours

Current Status

Altitude 491.7 km
Velocity 7.62 km/s
Sub-Earth Point -48.89°S, 0.45°E
Launch Date Feb 11, 2025
Age 0.7 years
Type internet

Technical Details

Classification Payload
Mass 730.00 kg
Dry Mass 700.00 kg
Total Mass 730.00 kg
Length 0.30 m
Diameter 4.10 m
Span 29.00 m
Shape Box + pan
Manufacturer SPXS
Bus Type Starlink V2M
Phase Status In Orbit
Owner/State SPXS/US

Large Constellations

Loading constellations...